Simultaneous Nadir Overpasses (SNOs) Predictions

Prediction of SNOs between GOES-16 and NOAA-20 Satellite Orbit:

Table of predicted SNOs for the next 14.0 days since TLE Epoch: 9/2/2023
Index Date Time (GOES-16) GOES-16 Lat,Lon NOAA-20 Lat,Lon Distance(km) Time Diff (sec)
1 09/02/2023 06:24:25 0.06, -75.20 0.02, -75.07 15.40 80
2 09/04/2023 18:27:35 -0.06, -75.22 -0.20, -75.84 70.24 80
3 09/05/2023 18:11:29 -0.06, -75.23 0.80, -71.30 447.14 80
4 09/07/2023 06:33:16 0.06, -75.24 0.35, -76.58 152.56 80
5 09/08/2023 06:11:51 0.05, -75.25 -0.65, -72.04 364.96 80
6 09/09/2023 18:33:46 -0.05, -75.27 -0.53, -77.35 237.06 80
7 09/10/2023 18:17:42 -0.04, -75.28 0.54, -72.83 280.99 80
8 09/12/2023 06:39:28 0.03, -75.31 0.67, -78.09 317.43 80
9 09/13/2023 06:18:03 0.03, -75.32 -0.34, -73.55 201.07 80
10 09/14/2023 18:39:58 -0.02, -75.36 -0.82, -78.86 399.51 80
11 09/15/2023 18:23:52 -0.02, -75.38 0.19, -74.33 119.63 80
